[[{"header":{"parameterUnit":"m.s-1","parameterCategory":1,"la1":30.2991,"la2":30.254,"lo1":-89.0895,"lo2":-89.0444,"dy":0.0017,"dx":0.0017,"nx":28,"ny":28,"refTime":"2024-12-20T03:00:00:Z","depth":0,"parameterNumber":2,"parameterNumberName":"U-component_of_WINDS"},"data":[0,0,0,0,0,0,0,0,0,0,0,0,0,0,0,0,0,0,0,0,0,0,0,0,0,0,0,0,0,0,0,0,0,0,0,0,0,0,0,0,0,0,0,0,0,0,0,0,0,0,0,0,0,0,0,0,0,0,2.7103,2.7103,0,2.7109,2.7109,2.7109,2.7043,2.7041,2.7039,2.7038,2.7043,2.7045,2.7047,0,0,0,0,0,0,0,0,0,0,0,0,0,2.7034,2.7035,2.7103,2.7103,2.7103,2.7109,2.7109,2.7109,2.7043,2.7041,2.7039,2.7037,2.7043,2.7045,2.7047,0,0,0,0,0,0,0,0,0,0,0,0,0,2.7054,2.7036,2.7103,2.7071,2.7068,2.7109,2.7109,2.7109,2.7044,2.7041,2.7038,2.7036,2.7042,2.7045,2.7047,2.7119,0,0,2.7056,2.7057,0,0,0,0,0,0,0,0,2.7053,2.7057,2.7075,2.7073,2.707,2.7072,2.7087,2.7113,2.7044,2.7053,2.7037,2.7034,2.7055,2.7057,2.7064,2.712,2.712,2.7056,2.7058,2.7059,2.706,0,0,0,0,0,0,0,2.7052,2.7056,2.7105,2.7076,2.7073,2.7056,2.7056,2.7092,2.7069,2.7052,2.7047,2.7049,2.7053,2.7061,2.7064,2.712,2.7056,2.7059,2.706,2.7061,2.7237,2.724,0,0,0,0,0,0,2.7055,2.7056,2.7105,2.7106,2.7055,2.706,2.706,2.7074,2.7069,2.7065,2.7051,2.7046,2.7058,2.706,2.7063,2.7149,2.7059,2.7062,2.7063,2.7234,2.7237,2.7241,0,0,0,0,0,0,2.7054,2.706,2.7105,2.7079,2.7084,2.7064,2.7081,2.7076,2.7084,2.7068,2.7064,2.7064,2.7056,2.706,2.7106,2.7148,2.7063,2.7065,2.723,2.7235,2.7239,2.7319,0,0,0,0,0,0,2.7052,2.706,2.7087,2.708,2.7085,2.7148,2.7084,2.7078,2.7089,2.7082,2.7079,2.7076,2.7054,2.7103,2.7109,2.715,2.7068,2.7227,2.7232,2.7238,2.7312,2.7325,2.7337,0,0,0,0,0,2.705,2.7109,2.7089,2.7095,2.7119,2.715,2.7153,2.7128,2.7093,2.712,2.711,2.7076,2.7142,2.7108,2.7115,2.7157,2.7224,2.7231,2.7237,2.7307,2.7323,2.7336,0,0,0,0,0,0,2.712,2.7107,2.7085,2.7143,2.7149,2.7139,2.7173,2.7145,2.716,2.7153,2.712,2.712,2.7172,2.7169,2.7131,2.7227,2.7177,2.7185,2.7228,2.7242,2.7254,2.7254,2.707,0,0,0,0,0,2.7142,2.7169,2.7156,2.7209,2.7213,2.7193,2.7205,2.7185,2.7189,2.7191,2.7184,2.7189,2.7211,2.7227,2.7246,2.7311,2.731,2.7344,2.7356,2.7366,2.7374,2.741,2.7425,2.7263,2.7263,2.7263,0,0,2.7189,2.7185,2.7204,2.7223,2.7225,2.7254,2.7195,2.7227,2.7249,2.7196,2.724,2.7236,2.7239,2.7296,2.7321,2.7295,2.7419,2.7375,2.7383,2.7385,2.7418,2.7434,2.7447,2.7267,2.7267,2.7266,0,0,2.7288,2.7288,2.7332,2.7336,2.7339,2.7325,2.7336,2.7331,2.7327,2.7371,2.7332,2.7357,2.7395,2.74,2.7407,2.751,2.7479,2.7517,2.758,2.7616,2.7629,2.764,2.7678,2.7691,2.7525,2.7525,2.7525,0,2.7345,2.7387,2.7359,2.7395,2.7405,2.7359,2.7404,2.7409,2.7418,2.7427,2.7398,2.7446,2.7445,2.7503,2.7529,2.7536,2.7548,2.7517,2.7629,2.764,2.765,2.7686,2.77,2.753,2.7529,2.7529,2.7528,0,2.7458,2.7488,2.7523,2.7535,2.7549,2.7589,2.7567,2.7585,2.7564,2.7554,2.76,2.7597,2.7616,2.7628,2.7607,2.7684,2.7668,2.7635,2.7583,2.7671,2.7704,2.7717,2.7536,2.7535,2.7533,2.7532,0,0,2.7601,2.7597,2.7611,2.7616,2.7617,2.764,2.7679,2.7698,2.7714,2.7722,2.7755,2.7789,2.7759,2.7767,2.7747,2.7778,2.7861,2.774,2.774,2.7764,2.7946,2.7972,2.7988,2.784,2.7843,2.7845,2.7946,0,2.7699,2.7765,2.7741,2.7809,2.7837,2.7794,2.7828,2.7833,2.7824,2.7847,2.7837,2.7863,2.782,2.7825,2.7854,2.7845,2.7897,2.7837,2.7871,2.7872,2.7872,2.8005,2.8032,2.8128,2.7959,2.7961,2.7963,0,2.7821,2.7836,2.7907,2.7905,2.7916,2.7946,2.7963,2.7984,2.7989,2.7981,2.7991,2.7965,2.8003,2.7952,2.8004,2.7964,2.7976,2.7974,2.7977,2.798,2.7923,2.8013,2.8158,2.8173,2.7983,2.7981,2.798,0,2.792,2.7958,2.8005,2.8011,2.8009,2.8032,2.8032,2.8034,2.8048,2.8062,2.807,2.8088,2.8099,2.8114,2.8093,2.8057,2.8149,2.8096,2.8144,2.8145,2.8165,2.8165,2.8316,2.8172,2.8172,2.8172,2.8172,0,2.8032,2.8078,2.805,2.8079,2.8129,2.8102,2.8152,2.8147,2.815,2.8178,2.8142,2.8169,2.8139,2.8164,2.8148,2.8195,2.8199,2.8194,2.8189,2.8198,2.8199,2.8206,2.8199,2.8176,2.8175,2.8174,2.8173,0,2.8152,2.8134,2.8184,2.8179,2.8178,2.8216,2.8211,2.8238,2.8228,2.8264,2.8271,2.8254,2.8281,2.8262,2.8288,2.8277,2.834,2.8325,2.8339,2.8335,2.8385,2.8381,2.8547,2.8567,2.841,2.8411,2.8412,0,2.8225,2.8259,2.8258,2.8274,2.8277,2.8304,2.8318,2.8292,2.8308,2.8317,2.8343,2.8367,2.8385,2.8431,2.8421,2.8442,2.8428,2.8485,2.8431,2.8439,2.843,2.8429,2.8433,2.8496,2.8498,2.8499,2.8501,0,2.8357,2.8347,2.8368,2.8387,2.8405,2.8419,2.8429,2.8445,2.8419,2.8439,2.8467,2.8481,2.8509,2.8534,2.8551,2.8551,2.8522,2.8518,2.853,2.854,2.8546,2.8545,2.8369,2.8514,2.8513,2.8512,2.8511,2.851,2.8455,2.8484,2.8489,2.8514,2.852,2.8531,2.8557,2.855,2.8572,2.8594,2.8577,2.8611,2.8615,2.8636,2.864,2.8666,2.8642,2.866,2.8665,2.867,2.8677,2.8542,2.8669,2.8668,2.8668,2.8667,2.8667,0,2.8587,2.8588,2.8611,2.8628,2.8648,2.862,2.863,2.8649,2.8679,2.8686,2.8705,2.8738,2.8762,2.8755,2.8776,2.8799,2.8786,2.8805,2.8804,2.8805,2.8696,2.8684,2.8815,2.8815,2.8815,2.8815,2.8815,2.8815,2.8657,2.8705,2.8696,2.8747,2.8747,2.878,2.8789,2.8799,2.8805,2.8843,2.8864,2.8859,2.886,2.8882,2.8903,2.8901,2.8911,2.8935,2.8928,2.8827,2.8812,2.8798,2.8787,2.8937,2.8937,2.9034,2.9035,2.9036]},{"header":{"parameterUnit":"m.s-1","parameterCategory":1,"la1":30.2991,"la2":30.254,"lo1":-89.0895,"lo2":-89.0444,"dy":0.0017,"dx":0.0017,"nx":28,"ny":28,"refTime":"2024-12-20T03:00:00:Z","depth":0,"parameterNumber":3,"parameterNumberName":"V-component_of_WINDS"},"data":[0,0,0,0,0,0,0,0,0,0,0,0,0,0,0,0,0,0,0,0,0,0,0,0,0,0,0,0,0,0,0,0,0,0,0,0,0,0,0,0,0,0,0,0,0,0,0,0,0,0,0,0,0,0,0,0,0,0,-6.3365,-6.3367,0,-6.3537,-6.3539,-6.3541,-6.3531,-6.3528,-6.3526,-6.3524,-6.3694,-6.37,-6.3707,0,0,0,0,0,0,0,0,0,0,0,0,0,-6.3026,-6.3032,-6.3365,-6.3367,-6.3369,-6.3536,-6.3539,-6.3541,-6.3531,-6.3528,-6.3525,-6.3522,-6.3691,-6.3699,-6.3708,0,0,0,0,0,0,0,0,0,0,0,0,0,-6.3183,-6.3034,-6.3365,-6.3385,-6.3388,-6.3536,-6.3539,-6.3542,-6.3532,-6.3528,-6.3524,-6.3521,-6.3689,-6.3699,-6.3709,-6.3846,0,0,-6.374,-6.3745,0,0,0,0,0,0,0,0,-6.3174,-6.3195,-6.338,-6.3384,-6.3388,-6.3509,-6.3482,-6.3644,-6.3533,-6.3477,-6.3523,-6.3519,-6.3635,-6.3649,-6.3689,-6.3854,-6.3861,-6.3741,-6.3747,-6.3752,-6.3755,0,0,0,0,0,0,0,-6.3163,-6.3188,-6.3433,-6.3382,-6.3387,-6.3384,-6.3402,-6.3512,-6.3574,-6.3482,-6.3481,-6.3502,-6.3636,-6.3679,-6.3693,-6.3864,-6.3741,-6.375,-6.3756,-6.376,-6.4153,-6.4157,0,0,0,0,0,0,-6.3148,-6.3179,-6.3427,-6.3438,-6.327,-6.3393,-6.3414,-6.3474,-6.3573,-6.3585,-6.3505,-6.3501,-6.3664,-6.3681,-6.3699,-6.3869,-6.3752,-6.3761,-6.3767,-6.4148,-6.4154,-6.4158,0,0,0,0,0,0,-6.3141,-6.3171,-6.342,-6.3309,-6.334,-6.3403,-6.347,-6.3479,-6.3522,-6.3591,-6.3602,-6.3538,-6.3662,-6.3685,-6.3811,-6.3874,-6.3766,-6.3775,-6.4143,-6.415,-6.4156,-6.4207,0,0,0,0,0,0,-6.3131,-6.3168,-6.3221,-6.331,-6.3346,-6.353,-6.3474,-6.3485,-6.3541,-6.3537,-6.3625,-6.3636,-6.366,-6.3796,-6.3821,-6.3886,-6.3783,-6.4138,-6.4146,-6.4154,-6.42,-6.4214,-6.4227,0,0,0,0,0,-6.3119,-6.3227,-6.3224,-6.3254,-6.3414,-6.3534,-6.3554,-6.3582,-6.3546,-6.36,-6.3644,-6.3633,-6.3863,-6.3808,-6.3837,-6.3906,-6.4134,-6.4144,-6.4153,-6.4194,-6.4211,-6.4226,0,0,0,0,0,0,-6.3141,-6.3239,-6.3237,-6.3376,-6.3447,-6.3532,-6.3601,-6.36,-6.3681,-6.3673,-6.3703,-6.3723,-6.385,-6.389,-6.3828,-6.4046,-6.3994,-6.4009,-6.4015,-6.4032,-6.4045,-6.4033,-6.3792,0,0,0,0,0,-6.3163,-6.3253,-6.3333,-6.3448,-6.3485,-6.3537,-6.359,-6.3606,-6.3679,-6.3708,-6.3762,-6.3833,-6.3922,-6.3979,-6.4064,-6.4206,-6.4225,-6.4268,-6.4281,-6.4292,-6.4305,-6.4385,-6.4405,-6.419,-6.419,-6.419,0,0,-6.3208,-6.3272,-6.3327,-6.3455,-6.3511,-6.3604,-6.3562,-6.366,-6.3729,-6.3723,-6.3846,-6.3888,-6.3969,-6.4104,-6.4167,-6.4142,-6.4369,-6.4304,-6.4312,-6.432,-6.4397,-6.4417,-6.4436,-6.4196,-6.4195,-6.4194,0,0,-6.3336,-6.3394,-6.3498,-6.3557,-6.3644,-6.3679,-6.3704,-6.379,-6.3819,-6.3944,-6.3942,-6.4023,-6.4174,-6.4233,-6.4283,-6.4438,-6.4431,-6.4464,-6.4534,-6.4612,-6.4629,-6.4644,-6.4701,-6.4721,-6.4477,-6.4477,-6.4477,0,-6.338,-6.3521,-6.3551,-6.3652,-6.3709,-6.371,-6.3816,-6.3871,-6.3981,-6.402,-6.3991,-6.4184,-6.4238,-6.4388,-6.4427,-6.4466,-6.4496,-6.4454,-6.4624,-6.464,-6.4655,-6.4709,-6.473,-6.4481,-6.4481,-6.448,-6.448,0,-6.3571,-6.3669,-6.3742,-6.3852,-6.3917,-6.4019,-6.4065,-6.4127,-6.4138,-6.4175,-6.4303,-6.4369,-6.4469,-6.4505,-6.4515,-6.4658,-6.464,-6.4618,-6.4566,-6.4678,-6.473,-6.4751,-6.4486,-6.4485,-6.4484,-6.4483,0,0,-6.3716,-6.3844,-6.3871,-6.3922,-6.402,-6.4096,-6.4199,-6.4299,-6.4352,-6.4429,-6.4516,-6.4646,-6.4627,-6.4684,-6.4701,-6.4769,-6.489,-6.4739,-6.4741,-6.4765,-6.5053,-6.5069,-6.5093,-6.4886,-6.489,-6.4893,-6.5046,0,-6.3856,-6.4041,-6.4073,-6.4234,-6.4326,-6.433,-6.442,-6.449,-6.4529,-6.4611,-6.4652,-6.4745,-6.4712,-6.4747,-6.4815,-6.4861,-6.4948,-6.485,-6.4967,-6.4971,-6.4948,-6.512,-6.5137,-6.5278,-6.5066,-6.507,-6.5072,0,-6.4043,-6.4128,-6.43,-6.4389,-6.4428,-6.4509,-6.4605,-6.4683,-6.4763,-6.4786,-6.4852,-6.4862,-6.4969,-6.4913,-6.5061,-6.4994,-6.5044,-6.5074,-6.508,-6.5092,-6.5028,-6.5137,-6.5323,-6.5345,-6.5104,-6.5102,-6.5099,0,-6.4133,-6.429,-6.4414,-6.4457,-6.4564,-6.4621,-6.4668,-6.4744,-6.4803,-6.4887,-6.4926,-6.5019,-6.5071,-6.5143,-6.5178,-6.5134,-6.5324,-6.5271,-6.5347,-6.5346,-6.5386,-6.5383,-6.5584,-6.5418,-6.5417,-6.5417,-6.5416,0,-6.4286,-6.4391,-6.4457,-6.4533,-6.4651,-6.4687,-6.4802,-6.4848,-6.4916,-6.5001,-6.501,-6.5089,-6.513,-6.5215,-6.5243,-6.5363,-6.5385,-6.5407,-6.5413,-6.5407,-6.5404,-6.544,-6.5431,-6.5422,-6.5421,-6.542,-6.5419,0,-6.4406,-6.4454,-6.459,-6.4682,-6.4707,-6.479,-6.4868,-6.4942,-6.4982,-6.5089,-6.5116,-6.5177,-6.5278,-6.5321,-6.5444,-6.5463,-6.56,-6.5599,-6.5574,-6.5576,-6.565,-6.5643,-6.5881,-6.5915,-6.5726,-6.5727,-6.5729,0,-6.45,-6.4582,-6.4684,-6.4742,-6.4792,-6.4886,-6.4947,-6.4986,-6.505,-6.5149,-6.5211,-6.5313,-6.5397,-6.5558,-6.5613,-6.5708,-6.5709,-6.5786,-6.5723,-6.5715,-6.5711,-6.5706,-6.5715,-6.5797,-6.5799,-6.58,-6.5802,0,-6.4663,-6.4684,-6.4773,-6.4873,-6.4947,-6.5026,-6.5103,-6.515,-6.5201,-6.5272,-6.5377,-6.5443,-6.5571,-6.5672,-6.5771,-6.5818,-6.5819,-6.5821,-6.5844,-6.5838,-6.5821,-6.5833,-6.5606,-6.5815,-6.5814,-6.5813,-6.5812,-6.5812,-6.4774,-6.4848,-6.4932,-6.5032,-6.5095,-6.5168,-6.5243,-6.5294,-6.5383,-6.5492,-6.5509,-6.5622,-6.5702,-6.5835,-6.5887,-6.5975,-6.5955,-6.5988,-6.5996,-6.6004,-6.6009,-6.5808,-6.5993,-6.5992,-6.5992,-6.5992,-6.5991,0,-6.4938,-6.4993,-6.5085,-6.5195,-6.5274,-6.5271,-6.5357,-6.5423,-6.5523,-6.5599,-6.5683,-6.5804,-6.5904,-6.5968,-6.6068,-6.6126,-6.6129,-6.6151,-6.6147,-6.6159,-6.602,-6.5991,-6.6147,-6.6147,-6.6147,-6.6147,-6.6147,-6.6147,-6.5032,-6.5158,-6.5189,-6.5347,-6.5401,-6.5514,-6.5563,-6.5631,-6.5692,-6.5829,-6.5913,-6.5955,-6.6026,-6.6132,-6.6223,-6.624,-6.6276,-6.63,-6.6315,-6.6184,-6.6168,-6.6152,-6.6125,-6.6307,-6.6307,-6.6446,-6.6447,-6.6448]}]]